Date String (YYYY-MM-DD hh:mm:ss) UTC,Instrument flags,absolute air pressure of the measurement (hPa),sample flow rate (lpm),inlet stack bypass flow (lpm),air temperature of the measurement (°C),ambient temperature measured by the external sensor (°C),aerosol sample conditioner tube jacket temperature (°C),OPC LED temperature (°C),internal box temperature (°C),relative humidity of the measurement (%),span deviation,mass concentration of particles derived from Lorenz-Mie calculation of OPC scattering (μg/m³),mass concentration of particles derived from Lorenz-Mie calculation of OPC scattering (μg/m³),mass concentration of particles derived from Lorenz-Mie calculation of OPC scattering (μg/m³)
DateTimeUTC,F1_M11,P_M11,Q1_M11,Q2_M11,T1_M11,T2_M11,T3_M11,T4_M11,T5_M11,U1_M11,ZSPAN_M11,X0_M11,X2_M11,X1_M11
2024-03-21 04:00:00,SystemResetWarning,0826.6,5.00,000.00,024.4,023.5,000.0,033.1,026.3,16.3,0003.8,0022.30,0009.83,0008.58
2024-03-21 04:01:00,SystemResetWarning,0826.6,5.00,000.00,024.4,023.5,000.0,033.1,026.3,16.4,0004.0,0021.28,0009.80,0008.56
2024-03-21 04:02:00,SystemResetWarning,0826.6,5.00,000.00,024.4,023.5,000.0,033.1,026.3,16.5,0004.2,0021.12,0009.85,0008.58
2024-03-21 04:03:00,SystemResetWarning,0826.6,5.00,000.00,024.4,023.5,000.0,033.1,026.3,16.5,0004.3,0021.18,0009.94,0008.63
2024-03-21 04:04:00,SystemResetWarning,0826.6,5.00,000.00,024.4,023.5,000.0,033.1,026.3,16.5,0004.3,0021.43,0009.92,0008.65
2024-03-21 04:05:00,SystemResetWarning,0826.6,5.00,000.00,024.4,023.5,000.0,033.1,026.3,16.4,0004.4,0021.87,0009.87,0008.64
2024-03-21 04:06:00,SystemResetWarning,0826.6,5.00,000.00,024.4,023.5,000.0,033.1,026.2,16.4,0004.8,0023.06,0009.84,0008.62
2024-03-21 04:07:00,SystemResetWarning,0826.6,5.00,000.00,024.3,023.5,000.0,033.1,026.2,16.4,0005.2,0023.07,0009.85,0008.61
2024-03-21 04:08:00,SystemResetWarning,0826.6,5.00,000.00,024.3,023.4,000.0,033.1,026.2,16.3,0005.3,0022.39,0009.83,0008.56
2024-03-21 04:09:00,SystemResetWarning,0826.6,5.00,000.00,024.3,023.4,000.0,033.1,026.2,16.3,0005.7,0022.38,0009.81,0008.53
2024-03-21 04:10:00,SystemResetWarning,0826.6,5.00,000.00,024.3,023.4,000.0,033.0,026.2,16.3,0005.3,0022.60,0009.75,0008.48
2024-03-21 04:11:00,SystemResetWarning,0826.6,4.99,000.00,024.3,023.4,000.0,033.0,026.2,16.3,0005.6,0023.52,0009.74,0008.48
2024-03-21 04:12:00,SystemResetWarning,0826.6,5.00,000.00,024.3,023.4,000.0,033.0,026.2,16.3,0005.4,0024.09,0009.74,0008.47
2024-03-21 04:13:00,SystemResetWarning,0826.6,5.00,000.00,024.3,023.4,000.0,033.0,026.2,16.3,0005.3,0024.66,0009.67,0008.42
2024-03-21 04:14:00,SystemResetWarning,0826.6,5.00,000.00,024.3,023.4,000.0,033.0,026.1,16.3,0005.4,0025.15,0009.62,0008.39
2024-03-21 04:15:00,SystemResetWarning,0826.6,5.00,000.00,024.3,023.4,000.0,033.0,026.1,16.3,0005.3,0023.87,0009.64,0008.38
2024-03-21 04:16:00,SystemResetWarning,0826.6,5.00,000.00,024.2,023.4,000.0,033.0,026.1,16.4,0005.0,0022.19,0009.66,0008.39
2024-03-21 04:17:00,SystemResetWarning,0826.6,5.00,000.00,024.2,023.3,000.0,033.0,026.1,16.2,0004.9,0020.82,0009.60,0008.37
2024-03-21 04:18:00,SystemResetWarning,0826.6,5.00,000.00,024.2,023.3,000.0,033.0,026.1,16.2,0004.7,0020.43,0009.51,0008.34
2024-03-21 04:19:00,SystemResetWarning,0826.6,5.00,000.00,024.2,023.3,000.0,032.9,026.1,16.4,0004.5,0021.68,0009.49,0008.36
2024-03-21 04:20:00,SystemResetWarning,0826.6,5.00,000.00,024.2,023.3,000.0,032.9,026.1,16.3,0004.4,0022.30,0009.47,0008.33
2024-03-21 04:21:00,SystemResetWarning,0826.6,5.00,000.00,024.2,023.3,000.0,032.9,026.1,16.2,0004.6,0021.70,0009.48,0008.31
2024-03-21 04:22:00,SystemResetWarning,0826.6,5.00,000.00,024.2,023.3,000.0,032.9,026.1,16.1,0004.6,0020.65,0009.40,0008.25
2024-03-21 04:23:00,SystemResetWarning,0826.6,5.00,000.00,024.2,023.3,000.0,032.9,026.1,16.1,0004.7,0020.15,0009.33,0008.20
2024-03-21 04:24:00,SystemResetWarning,0826.6,5.00,000.00,024.2,023.3,000.0,032.9,026.1,16.2,0004.5,0019.12,0009.30,0008.18
2024-03-21 04:25:00,SystemResetWarning,0826.6,5.01,000.00,024.2,023.3,000.0,032.9,026.1,16.1,0004.1,0018.58,0009.26,0008.13
2024-03-21 04:26:00,SystemResetWarning,0826.6,5.00,000.00,024.2,023.3,000.0,032.9,026.1,16.1,0004.2,0017.76,0009.16,0008.06
2024-03-21 04:27:00,SystemResetWarning,0826.6,5.00,000.00,024.2,023.3,000.0,032.9,026.1,16.2,0004.1,0018.52,0009.04,0007.98
2024-03-21 04:28:00,SystemResetWarning,0826.6,5.00,000.00,024.2,023.3,000.0,032.9,026.0,16.2,0003.9,0018.70,0008.98,0007.92
2024-03-21 04:29:00,SystemResetWarning,0826.6,5.01,000.00,024.2,023.3,000.0,032.9,026.0,16.2,0004.2,0018.61,0008.95,0007.88
2024-03-21 04:30:00,SystemResetWarning,0826.6,5.00,000.00,024.1,023.2,000.0,032.8,026.0,16.3,0004.4,0018.39,0008.93,0007.84
2024-03-21 04:31:00,SystemResetWarning,0826.7,5.00,000.00,024.1,023.2,000.0,032.8,026.0,16.5,0004.4,0018.25,0008.92,0007.85
2024-03-21 04:32:00,SystemResetWarning,0826.6,5.00,000.00,024.1,023.2,000.0,032.8,026.0,16.5,0003.8,0017.88,0008.92,0007.85
2024-03-21 04:33:00,SystemResetWarning,0826.6,5.01,000.00,024.1,023.2,000.0,032.8,026.0,16.4,0003.7,0018.83,0008.99,0007.89
2024-03-21 04:34:00,SystemResetWarning,0826.6,5.00,000.00,024.1,023.2,000.0,032.8,026.0,16.4,0003.4,0019.78,0009.02,0007.93
2024-03-21 04:35:00,SystemResetWarning,0826.6,5.00,000.00,024.1,023.2,000.0,032.8,026.0,16.3,0004.0,0020.35,0008.98,0007.89
2024-03-21 04:36:00,SystemResetWarning,0826.6,5.00,000.00,024.1,023.2,000.0,032.8,026.0,16.3,0004.5,0019.95,0008.96,0007.87
2024-03-21 04:37:00,SystemResetWarning,0826.6,5.00,000.00,024.1,023.2,000.0,032.8,026.0,16.3,0004.4,0020.72,0008.93,0007.84
2024-03-21 04:38:00,SystemResetWarning,0826.6,5.00,000.00,024.1,023.2,000.0,032.8,026.0,16.3,0004.5,0021.20,0008.98,0007.87
2024-03-21 04:39:00,SystemResetWarning,0826.6,5.00,000.00,024.1,023.2,000.0,032.8,026.0,16.3,0004.8,0021.88,0009.04,0007.91
2024-03-21 04:40:00,SystemResetWarning,0826.6,5.00,000.00,024.1,023.2,000.0,032.8,025.9,16.3,0004.8,0023.13,0009.13,0007.91
2024-03-21 04:41:00,SystemResetWarning,0826.6,5.00,000.00,024.0,023.2,000.0,032.8,025.9,16.6,0004.6,0022.97,0009.13,0007.86
2024-03-21 04:42:00,SystemResetWarning,0826.5,4.99,000.00,024.0,023.2,000.0,032.7,025.9,16.4,0005.0,0021.94,0009.08,0007.77
2024-03-21 04:43:00,SystemResetWarning,0826.6,4.99,000.00,024.0,023.2,000.0,032.7,025.9,16.3,0005.2,0022.72,0008.99,0007.69
2024-03-21 04:44:00,SystemResetWarning,0826.6,4.99,000.00,024.0,023.2,000.0,032.7,025.9,16.3,0004.9,0022.46,0008.87,0007.58
2024-03-21 04:45:00,SystemResetWarning,0826.6,5.01,000.00,024.0,023.1,000.0,032.7,025.9,16.3,0004.9,0022.26,0008.84,0007.50
2024-03-21 04:46:00,SystemResetWarning,0826.6,5.01,000.00,024.0,023.1,000.0,032.7,025.9,16.3,0004.7,0022.17,0008.88,0007.51
2024-03-21 04:47:00,SystemResetWarning,0826.6,5.00,000.00,024.0,023.1,000.0,032.7,025.9,16.2,0004.5,0022.00,0008.87,0007.51
2024-03-21 04:48:00,SystemResetWarning,0826.6,4.99,000.00,024.0,023.1,000.0,032.7,025.9,16.2,0004.9,0022.03,0008.84,0007.49
2024-03-21 04:49:00,SystemResetWarning,0826.6,5.00,000.00,024.0,023.1,000.0,032.7,025.9,16.3,0005.2,0021.54,0008.79,0007.45
2024-03-21 04:50:00,SystemResetWarning,0826.6,5.00,000.00,024.0,023.1,000.0,032.7,025.9,16.3,0005.2,0020.99,0008.65,0007.35
2024-03-21 04:51:00,SystemResetWarning,0826.6,5.00,000.00,024.0,023.1,000.0,032.7,025.9,16.2,0005.1,0021.02,0008.49,0007.28
2024-03-21 04:52:00,SystemResetWarning,0826.6,5.00,000.00,024.0,023.0,000.0,032.7,025.8,16.0,0005.2,0021.40,0008.36,0007.21
2024-03-21 04:53:00,SystemResetWarning,0826.6,5.01,000.00,023.9,023.0,000.0,032.6,025.8,15.9,0005.0,0021.89,0008.25,0007.17
2024-03-21 04:54:00,SystemResetWarning,0826.6,5.00,000.00,023.9,023.0,000.0,032.6,025.8,15.9,0005.0,0021.04,0008.17,0007.12
2024-03-21 04:55:00,SystemResetWarning,0826.6,4.99,000.00,023.9,023.0,000.0,032.6,025.8,15.8,0005.4,0020.61,0008.10,0007.08
2024-03-21 04:56:00,SystemResetWarning,0826.6,4.99,000.00,023.9,023.0,000.0,032.6,025.7,15.8,0005.6,0019.75,0008.03,0007.01
2024-03-21 04:57:00,SystemResetWarning,0826.6,5.01,000.00,023.9,023.0,000.0,032.6,025.7,15.9,0005.4,0018.93,0007.88,0006.88
2024-03-21 04:58:00,SystemResetWarning,0826.6,5.01,000.00,023.9,023.0,000.0,032.6,025.7,16.0,0005.3,0018.43,0007.75,0006.76
2024-03-21 04:59:00,SystemResetWarning,0826.6,5.00,000.00,023.9,023.0,000.0,032.6,025.7,15.9,0004.9,0017.84,0007.65,0006.69
